User: anonymous   Login
Location: Unspecified
(0.0000°N, 0.0000°E)
Time: 20:02:57
(UTC+02:00)
Language:

Timation 2 Rocket - Orbit

View from above orbital plane
View from above orbital plane
View from above satellite
View from above satellite

Ground track
Ground track

The orbit data is extracted from the following two-line orbital elements,

1 04159U 69082AB  14297.45444963  .00000052  00000-0  10706-3 0  7291
2 04159 069.9637 346.4590 0116912 214.1970 145.1555 13.72255788255440
Epoch (UTC): 24 October 2014 10:54:24
Eccentricity: 0.0116912
inclination: 69.9637°
perigee height: 905 km
apogee height: 1077 km
right ascension of ascending node: 346.4590°
argument of perigee: 214.1970°
revolutions per day: 13.72255788
mean anomaly at epoch: 145.1555°
orbit number at epoch: 25544

The dashed part of the orbit path shows where the satellite is in the earth's shadow,  

DLR